Regional Weather Roundup
Issued by NWS

Home | Current Version | Previous Version | Graphics & Text | Print | Product List | Glossary On
Versions: 1 2 3 4 5 6 7 8 9 10 11 12 13 14 15 16 17 18 19 20 21 22 23 24 25 26 27 28 29 30 31 32 33 34 35 36 37 38 39 40 41 42 43 44 45 46 47 48 49 50
000
ASUS45 KSLC 012010
RWRUT

UTAH REGIONAL WEATHER ROUNDUP
NATIONAL WEATHER SERVICE SALT LAKE CITY UT
200 PM MDT WED OCT 01 2014

UTZ001>011-023>025-012100-

NORTHERN UTAH

CITY           SKY/WX    TMP DP  RH WIND       PRES   REMARKS
HILL AFB       PTSUNNY   52  34  50 NW7       30.11S
LOGAN          NOT AVBL
OGDEN          MOSUNNY   54  36  50 W8        30.10S
PROVO AIRPORT  PTSUNNY   54  36  50 NW16      30.11R
SALT LAKE CITY MOSUNNY   56  35  45 W10       30.10S
VERNAL         MOSUNNY   54  38  54 NE12      29.99F
WENDOVER       SUNNY     57  27  30 N9G18     30.14F
HEBER CITY     CLOUDY    46  32  57 W5        30.09R
WEST JORDAN    MOSUNNY   50  37  62 SW9       30.13R

$$

UTZ012>022-026-027-012100-

SOUTHERN UTAH

CITY           SKY/WX    TMP DP  RH WIND       PRES   REMARKS
BRYCE CANYON   MOSUNNY   49  32  52 NW16      30.11S
CEDAR CITY     MOSUNNY   56  33  42 N13G21    30.10S
MILFORD        SUNNY     56  33  42 N13G22    30.12S
MOAB/CYNLANDS  CLOUDY    58  44  60 W8        29.97F
PRICE          MOSUNNY   54  26  34 NW15G25   30.02F
ST GEORGE      PTCLDY    73  39  29 E9        29.97F
KANAB            N/A     70  34  26 W12       30.01F

$$

REGIONAL REPORTS     COLORADO/ARIZONA

CITY           SKY/WX    TMP DP  RH WIND       PRES   REMARKS
CRAIG, CO      CLOUDY    47  37  68 NE3       30.01F
GRAND JUNCTION PTSUNNY   55  42  61 NW3       29.98F
RIFLE          CLOUDY    50  41  71 VRB3      30.00F
MONTROSE       CLOUDY    50  43  77 SE15      30.03F
CORTEZ         LGT RAIN  60  42  51 N14       30.00S
PAGE, AZ       MOSUNNY   71  35  26 MISG      29.94F
GRAND CANYON   PTSUNNY   64  37  36 N6        30.07F
KINGMAN        SUNNY     78  38  23 N13G20    29.95F
FLAGSTAFF      PTSUNNY   62  32  32 MISG      30.08F

$$

REGIONAL REPORTS    NEVADA/IDAHO/WYOMING

CITY           SKY/WX    TMP DP  RH WIND       PRES   REMARKS
LAS VEGAS, NV  MOSUNNY   82  31  15 N15G25    29.88F
ELY            SUNNY     54  22  28 N13G22    30.16F
ELKO           MOSUNNY   55  26  32 VRB6      30.18F
POCATELLO, ID  MOSUNNY   55  38  52 W18G24    30.11F
BURLEY         MOSUNNY   55  37  50 W14G22    30.12F
EVANSTON, WY   CLOUDY    45  27  49 NW9       30.09S
ROCK SPRINGS   PTSUNNY   47  26  44 W14       30.00F

$$


USA.gov is the U.S. government's official web portal to all federal, state and local government web resources and services.